N512DM PASI-PASI

Flight info

Callsign N512DM
Flight time 0h 5m
Altitude 7000
Route BKA
Aircraft C182/L-SDGRY/S

Departure

Time 2026-04-30 00:09
Airport Sitka Rocky Gutierrez Airport (PASI)

Arrival

Time 2026-04-30 00:14
Airport Sitka Rocky Gutierrez Airport (PASI)
Time Latitude Longitude Altitude Speed Heading
2026-04-30 00:05 57.04097 -135.35061 33 ft 0 kts 315°
2026-04-30 00:06 57.04098 -135.35061 33 ft 0 kts 315°
2026-04-30 00:06 57.04097 -135.35061 33 ft 0 kts 315°
2026-04-30 00:07 57.04098 -135.35061 33 ft 0 kts 315°
2026-04-30 00:07 57.04121 -135.35143 33 ft 18 kts 306°
2026-04-30 00:08 57.04246 -135.35332 33 ft 28 kts 315°
2026-04-30 00:08 57.04472 -135.35736 30 ft 70 kts 316°
2026-04-30 00:08 57.04869 -135.36498 263 ft 80 kts 307°
2026-04-30 00:08 57.05181 -135.37264 525 ft 82 kts 305°
2026-04-30 00:09 57.05509 -135.38105 783 ft 80 kts 298°
2026-04-30 00:09 57.05450 -135.39144 943 ft 92 kts 231°
2026-04-30 00:09 57.04874 -135.39255 1200 ft 90 kts 161°
2026-04-30 00:09 57.04430 -135.40122 1068 ft 114 kts 253°
2026-04-30 00:10 57.04193 -135.41582 905 ft 120 kts 251°
2026-04-30 00:10 57.03954 -135.43017 840 ft 118 kts 254°
2026-04-30 00:10 57.03870 -135.44470 870 ft 113 kts 273°
2026-04-30 00:10 57.04002 -135.45865 938 ft 109 kts 283°
2026-04-30 00:11 57.04342 -135.47130 946 ft 117 kts 308°
2026-04-30 00:11 57.04929 -135.48056 1171 ft 106 kts 324°
2026-04-30 00:11 57.05619 -135.48608 1182 ft 118 kts 347°
2026-04-30 00:11 57.06438 -135.48624 1281 ft 116 kts 13°
2026-04-30 00:12 57.06955 -135.47523 1283 ft 117 kts 66°
2026-04-30 00:12 57.07234 -135.46203 1317 ft 107 kts 68°
2026-04-30 00:12 57.07510 -135.44923 1217 ft 109 kts 68°
2026-04-30 00:12 57.07778 -135.43602 1068 ft 112 kts 68°
2026-04-30 00:13 57.07808 -135.42217 876 ft 111 kts 100°
2026-04-30 00:13 57.07526 -135.40887 674 ft 108 kts 123°
2026-04-30 00:13 57.07051 -135.39985 597 ft 96 kts 141°
2026-04-30 00:13 57.06510 -135.39146 378 ft 104 kts 140°
2026-04-30 00:14 57.05966 -135.38332 281 ft 99 kts 144°
2026-04-30 00:14 57.05453 -135.37495 103 ft 98 kts 136°
2026-04-30 00:14 57.05012 -135.36701 29 ft 75 kts 132°
2026-04-30 00:14 57.04735 -135.36197 32 ft 31 kts 135°
2026-04-30 00:15 57.04702 -135.36138 31 ft 0 kts 137°